Home > Weather > Prague > Past weeks

Flag for Czech Republic Weather for the Past 2 Weeks in Prague, Czech Republic

Now
55 °F

Passing clouds.


Feels Like: 54 °F
Forecast: 43 / 64 °F
Wind: 6 mph from North

Location: Prague Ruzyne Airport

Current Time: May 2, 2016 at 11:20:15 AM

Latest Report: May 2, 2016 at 10:30 AM


Visibility: N/A

Pressure: 30.18 "Hg

Humidity: 59%

Dew Point: 41 °F

Location of PragueLocation

Historic Weather in Prague — Graph

°F

Prague Temperature Yesterday

Maximum temperature yesterday: 63 °F (at 1:30 PM)
Minimum temperature yesterday: 41 °F (at 3:30 AM)
Average temperature yesterday: 53 °F

High & Low Weather Summary for the Past Weeks

 TemperatureHumidityPressure
High63 °F (Apr 30, 3:00 PM)100% (Apr 29, 6:30 AM)30.36 "Hg (Apr 29, 6:30 AM)
Low28 °F (Apr 25, 5:30 AM)27% (Apr 30, 3:00 PM)29.50 "Hg (Apr 26, 11:00 AM)
Average45 °F65%29.97 "Hg
* Reported Apr 17 10:00 AM — May 2 10:00 AM, Prague, Weather by CustomWeather, © 2016

Note: Actual official high and low records may vary slightly from our data, if they occured in-between our weather recording intervals... More about our weather records

Advertising

Prague Weather History for the Previous 24 Hours

Scroll right to see more
 ConditionsComfort  
Time TempWeatherWind HumidityBarometerVisibility
10:00 AM
Mon, May 2
54 °FPassing clouds.5 mph58%30.18 "HgN/A
9:30 AM52 °FPassing clouds.5 mph62%30.18 "HgN/A
9:00 AM50 °FPassing clouds.6 mph71%30.18 "HgN/A
8:30 AM48 °FSunny.7 mph71%30.21 "Hg10 mi
7:00 AM43 °FSunny.3 mph81%30.18 "Hg10 mi
6:00 AM41 °FPassing clouds.3 mph81%30.18 "HgN/A
5:00 AM39 °FClear.3 mph87%30.18 "Hg10 mi
4:30 AM39 °FClear.2 mph87%30.18 "Hg10 mi
4:00 AM41 °FClear.2 mph81%30.18 "Hg10 mi
3:30 AM41 °FClear.2 mph81%30.18 "Hg10 mi
3:00 AM43 °FClear.3 mph76%30.18 "Hg10 mi
2:30 AM43 °FClear.5 mph76%30.18 "Hg10 mi
2:00 AM43 °FClear.5 mph76%30.18 "Hg10 mi
1:00 AM45 °FPassing clouds.3 mph76%30.18 "HgN/A
12:30 AM45 °FPassing clouds.2 mph76%30.18 "HgN/A
12:00 AM45 °FClear.5 mph76%30.18 "Hg10 mi
11:30 PM
Sun, May 1
45 °FPassing clouds.5 mph76%30.18 "HgN/A
11:00 PM46 °FPassing clouds.3 mph71%30.18 "HgN/A
10:30 PM48 °FPassing clouds.3 mph66%30.18 "HgN/A
10:00 PM50 °FPassing clouds.5 mph62%30.18 "HgN/A
9:30 PM52 °FPassing clouds.6 mph58%30.15 "HgN/A
9:00 PM52 °FPassing clouds.3 mph62%30.15 "HgN/A
8:30 PM54 °FPassing clouds.7 mph58%30.15 "HgN/A
8:00 PM55 °FSunny.7 mph55%30.15 "Hg10 mi
7:30 PM57 °FSunny.9 mph51%30.12 "Hg10 mi
7:00 PM57 °FPassing clouds.13 mph51%30.12 "HgN/A
6:30 PM57 °FSunny.16 mph55%30.12 "Hg10 mi
6:00 PM59 °FPassing clouds.15 mph55%30.12 "HgN/A
5:30 PM59 °FPassing clouds.16 mph55%30.09 "HgN/A
5:00 PM59 °FSunny.15 mph55%30.09 "Hg10 mi
4:30 PM61 °FPassing clouds.17 mph52%30.09 "HgN/A
4:00 PM63 °FSunny.13 mph37%30.07 "Hg10 mi
3:30 PM63 °FSunny.13 mph39%30.09 "Hg10 mi
3:00 PM63 °FSunny.14 mph37%30.07 "Hg10 mi
2:30 PM61 °FPassing clouds.13 mph42%30.07 "HgN/A
2:00 PM61 °FPassing clouds.14 mph42%30.07 "HgN/A
1:30 PM63 °FPassing clouds.16 mph42%30.09 "HgN/A
1:00 PM61 °FPassing clouds.14 mph42%30.07 "HgN/A
12:30 PM61 °FPassing clouds.14 mph42%30.07 "HgN/A
12:00 PM59 °FPassing clouds.10 mph51%30.07 "HgN/A
11:30 AM57 °FPassing clouds.9 mph55%30.07 "HgN/A
11:00 AM57 °FPassing clouds.9 mph55%30.07 "HgN/A
Weather by CustomWeather, © 2016

See weather overviewHow to use our weather pages